^^
Station Historical Data
Daily Summary for January 9, 2018 Units:  Metric    English   Both
« Previous Day
Next Day »
Daily Weekly Monthly Yearly Custom
  High: Low: Average:
Temperature: -17.8 °C 19.3 °C 27 °C
Dew Point: -17.8 °C -0.9 °C 2.6 °C
Humidity: Humidity% 10% 23%
Wind Speed: 0km/h 0km/h 5.6km/h
Wind Gust: 0km/h - -
Wind- - SSE
Pressure: 0 hPa 1002.3 hPa -
Precipitation: 0 mm    
Historical Graphs
 
 
Tabular Data for January 9, 2018
Time Temperature Dew Point Pressure Wind Wind Speed Wind Gust Humidity Rainfall Rate (Hourly) solar Conditions
-17.8 °C -17.8 °C 0 hPa Calm     Humidity% 0 mm SolarRadiationWatts/m^2 W/m2 Conditions
00:04 22.3 °C 4.8 °C 1023.2 hPa SE 9.7 km/h 11.3 km/h 32% 0 mm 0.0 W/m2
00:09 22.4 °C 4.4 °C 1022.9 hPa Calm   11.3 km/h 31% 0 mm 0.0 W/m2
00:14 22.4 °C 4.9 °C 1022.9 hPa South 1.4 km/h 12.9 km/h 32% 0 mm 0.0 W/m2
00:16 22.4 °C 4.9 °C 1022.9 hPa SE 4.7 km/h 8 km/h 32% 0 mm 0.0 W/m2
00:19 22.4 °C 4.9 °C 1022.9 hPa SSE 3.2 km/h 9.7 km/h 32% 0 mm 0.0 W/m2
00:24 22.4 °C 4.9 °C 1007 hPa Calm   4.8 km/h 32% 0 mm 0.0 W/m2
00:29 22.3 °C 4.8 °C 1022.9 hPa Calm   9.7 km/h 32% 0 mm 0.0 W/m2
00:34 22.3 °C 4.4 °C 1022.6 hPa SSW 4.7 km/h 4.8 km/h 31% 0 mm 0.0 W/m2
00:35 22.3 °C 4.8 °C 1022.6 hPa WSW 1.4 km/h 6.4 km/h 32% 0 mm 0.0 W/m2
00:39 22.2 °C 4.7 °C 1022.6 hPa Calm   9.7 km/h 32% 0 mm 0.0 W/m2
00:40 22.2 °C 4.7 °C 1022.6 hPa SSW 3.2 km/h 8 km/h 32% 0 mm 0.0 W/m2
00:45 22.2 °C 4.7 °C 1022.6 hPa South 1.4 km/h 4.8 km/h 32% 0 mm 0.0 W/m2
00:46 22.1 °C 4.6 °C 1022.6 hPa Calm   6.4 km/h 32% 0 mm 0.0 W/m2
00:50 22.1 °C 4.6 °C 1006.7 hPa SSW 1.4 km/h 4.8 km/h 32% 0 mm 0.0 W/m2
00:55 21.9 °C 4.5 °C 1022.6 hPa SSW 3.2 km/h 9.7 km/h 32% 0 mm 0.0 W/m2
01:00 21.9 °C 4.5 °C 1022.6 hPa Calm   8 km/h 32% 0 mm 0.0 W/m2
01:05 21.8 °C 4.4 °C 1022.6 hPa SSW 1.4 km/h 1.6 km/h 32% 0 mm 0.0 W/m2
01:08 21.8 °C 3.9 °C 1022.2 hPa SW 4.7 km/h 8 km/h 31% 0 mm 0.0 W/m2
01:10 21.8 °C 3.9 °C 1022.6 hPa SSW 3.2 km/h 3.2 km/h 31% 0 mm 0.0 W/m2
01:12 21.8 °C 3.9 °C 1022.6 hPa Calm   3.2 km/h 31% 0 mm 0.0 W/m2
01:16 21.8 °C 3.9 °C 1022.6 hPa SW 4.7 km/h 8 km/h 31% 0 mm 0.0 W/m2
01:21 21.8 °C 4.4 °C 1022.6 hPa SSW 1.4 km/h 6.4 km/h 32% 0 mm 0.0 W/m2
01:26 21.7 °C 3.8 °C 1006.3 hPa SW 1.4 km/h 3.2 km/h 31% 0 mm 0.0 W/m2
01:31 21.7 °C 4.3 °C 1022.2 hPa Calm   1.6 km/h 32% 0 mm 0.0 W/m2
01:32 21.6 °C 4.2 °C 1022.2 hPa Calm   4.8 km/h 32% 0 mm 0.0 W/m2
01:36 21.6 °C 4.2 °C 1022.2 hPa Calm     32% 0 mm 0.0 W/m2
01:39 21.5 °C 4.1 °C 1022.2 hPa Calm   1.6 km/h 32% 0 mm 0.0 W/m2
01:44 21.3 °C 3.9 °C 1006.3 hPa Calm     32% 0 mm 0.0 W/m2
01:46 21.3 °C 3.9 °C 1022.2 hPa Calm   1.6 km/h 32% 0 mm 0.0 W/m2
01:47 21.4 °C 4 °C 1022.2 hPa Calm   3.2 km/h 32% 0 mm 0.0 W/m2
01:51 21.1 °C 3.8 °C 1022.2 hPa Calm     32% 0 mm 0.0 W/m2
01:55 21 °C 4.1 °C 1022.2 hPa Calm     33% 0 mm 0.0 W/m2
01:57 20.9 °C 4 °C 1022.2 hPa Calm   1.6 km/h 33% 0 mm 0.0 W/m2
02:00 20.8 °C 3.9 °C 1022.2 hPa Calm   1.6 km/h 33% 0 mm 0.0 W/m2
02:02 20.7 °C 3.8 °C 1022.2 hPa Calm   1.6 km/h 33% 0 mm 0.0 W/m2
02:07 20.6 °C 4.2 °C 1022.2 hPa Calm     34% 0 mm 0.0 W/m2
02:12 20.4 °C 4 °C 1022.2 hPa Calm   1.6 km/h 34% 0 mm 0.0 W/m2
02:16 20.3 °C 3.9 °C 1022.2 hPa Calm     34% 0 mm 0.0 W/m2
02:22 20.3 °C 3.9 °C 1022.2 hPa Calm     34% 0 mm 0.0 W/m2
02:24 20.1 °C 3.7 °C 1022.2 hPa Calm   1.6 km/h 34% 0 mm 0.0 W/m2
02:25 20.1 °C 3.7 °C 1022.2 hPa ENE 3.2 km/h 4.8 km/h 34% 0 mm 0.0 W/m2
02:29 20 °C 3.2 °C 1022.2 hPa Calm   4.8 km/h 33% 0 mm 0.0 W/m2
02:30 20 °C 3.2 °C 1021.9 hPa WSW 3.2 km/h 4.8 km/h 33% 0 mm 0.0 W/m2
02:32 20.1 °C 2.9 °C 1021.9 hPa Calm   4.8 km/h 32% 0 mm 0.0 W/m2
02:37 20.2 °C 2.5 °C 1021.9 hPa Calm   4.8 km/h 31% 0 mm 0.0 W/m2
02:38 20.2 °C 2.5 °C 1021.9 hPa Calm   11.3 km/h 31% 0 mm 0.0 W/m2
02:42 20.4 °C 2.7 °C 1021.9 hPa South 6.4 km/h 11.3 km/h 31% 0 mm 0.0 W/m2
02:45 20.6 °C 2.9 °C 1021.6 hPa SSW 1.4 km/h 8 km/h 31% 0 mm 0.0 W/m2
02:50 20.9 °C 2.7 °C 1021.6 hPa East 13 km/h 13 km/h 30% 0 mm 0.0 W/m2
02:51 20.9 °C 2.7 °C 1021.6 hPa ESE 3.2 km/h 12.9 km/h 30% 0 mm 0.0 W/m2
02:56 21.2 °C 2.9 °C 1021.6 hPa Calm   8 km/h 30% 0 mm 0.0 W/m2
03:01 21.2 °C 2.9 °C 1021.6 hPa South 4.7 km/h 6.4 km/h 30% 0 mm 0.0 W/m2
03:06 21.3 °C 2.5 °C 1021.6 hPa South 3.2 km/h 9.7 km/h 29% 0 mm 0.0 W/m2
03:09 21.3 °C 3 °C 1021.6 hPa ENE 4.7 km/h 16.1 km/h 30% 0 mm 0.0 W/m2
03:13 21.3 °C 3 °C 1021.6 hPa Calm   20.9 km/h 30% 0 mm 0.0 W/m2
03:14 21.3 °C 2.5 °C 1021.6 hPa Calm   14.5 km/h 29% 0 mm 0.0 W/m2
03:16 21.3 °C 2.5 °C 1021.6 hPa SSE 3.2 km/h 11.3 km/h 29% 0 mm 0.0 W/m2
03:17 21.3 °C 2.5 °C 1021.2 hPa SE 1.4 km/h 11.3 km/h 29% 0 mm 0.0 W/m2
03:19 21.3 °C 3 °C 1005.6 hPa South 1.4 km/h 6.4 km/h 30% 0 mm 0.0 W/m2
03:21 21.2 °C 2.5 °C 1021.6 hPa SSW 4.7 km/h 12.9 km/h 29% 0 mm 0.0 W/m2
03:23 21.2 °C 2.5 °C 1021.6 hPa SSW 3.2 km/h 16.1 km/h 29% 0 mm 0.0 W/m2
03:24 21.2 °C 2.5 °C 1021.6 hPa East 4.7 km/h 12.9 km/h 29% 0 mm 0.0 W/m2
03:28 21.3 °C 2.5 °C 1021.6 hPa South 9.7 km/h 17.7 km/h 29% 0 mm 0.0 W/m2
03:29 21.3 °C 2.5 °C 1021.6 hPa SE 3.2 km/h 17.7 km/h 29% 0 mm 0.0 W/m2
03:34 21.3 °C 2.5 °C 1021.6 hPa South 6.4 km/h 19.3 km/h 29% 0 mm 0.0 W/m2
03:35 21.3 °C 2.5 °C 1021.6 hPa ESE 6.4 km/h 19.3 km/h 29% 0 mm 0.0 W/m2
03:38 21.4 °C 2.6 °C 1005.6 hPa SE 6.4 km/h 19.3 km/h 29% 0 mm 0.0 W/m2
03:39 21.3 °C 2.5 °C 1021.6 hPa SE 6.4 km/h 19.3 km/h 29% 0 mm 0.0 W/m2
03:45 21.4 °C 2.6 °C 1021.2 hPa ESE 7.9 km/h 12.9 km/h 29% 0 mm 0.0 W/m2
03:46 21.4 °C 2.6 °C 1021.6 hPa SSE 14.3 km/h 19.3 km/h 29% 0 mm 0.0 W/m2
03:51 21.3 °C 2.5 °C 1021.2 hPa South 16.3 km/h 17.7 km/h 29% 0 mm 0.0 W/m2
03:52 21.3 °C 2.5 °C 1021.2 hPa SE 9.7 km/h 19.3 km/h 29% 0 mm 0.0 W/m2
03:54 21.3 °C 2.5 °C 1021.2 hPa South 4.7 km/h 20.9 km/h 29% 0 mm 0.0 W/m2
03:55 21.3 °C 2.5 °C 1021.2 hPa South 11.1 km/h 19.3 km/h 29% 0 mm 0.0 W/m2
04:00 21.3 °C 3 °C 1005.3 hPa ESE 9.7 km/h 24.1 km/h 30% 0 mm 0.0 W/m2
04:01 21.3 °C 3 °C 1021.2 hPa SSE 7.9 km/h 24.1 km/h 30% 0 mm 0.0 W/m2
04:06 21.3 °C 3 °C 1021.2 hPa SE 6.4 km/h 22.5 km/h 30% 0 mm 0.0 W/m2
04:09 21.3 °C 3 °C 1021.2 hPa ESE 14.3 km/h 17.7 km/h 30% 0 mm 0.0 W/m2
04:14 21.2 °C 2.9 °C 1021.2 hPa SSE 4.7 km/h 22.5 km/h 30% 0 mm 0.0 W/m2
04:17 21.2 °C 3.4 °C 1021.2 hPa ESE 16.3 km/h 22.5 km/h 31% 0 mm 0.0 W/m2
04:24 21.2 °C 2.9 °C 1021.2 hPa SE 13 km/h 25.7 km/h 30% 0 mm 0.0 W/m2
04:26 21.1 °C 3.3 °C 1021.2 hPa ENE 3.2 km/h 16.1 km/h 31% 0 mm 0.0 W/m2
04:27 21.1 °C 3.3 °C 1005.3 hPa SE 16.3 km/h 20.9 km/h 31% 0 mm 0.0 W/m2
04:28 21.1 °C 3.3 °C 1021.2 hPa SSE 11.1 km/h 22.5 km/h 31% 0 mm 0.0 W/m2
04:29 21.1 °C 3.3 °C 1005.3 hPa SSE 14.3 km/h 22.5 km/h 31% 0 mm 0.0 W/m2
04:30 21.1 °C 3.3 °C 1021.2 hPa SSE 3.2 km/h 19.3 km/h 31% 0 mm 0.0 W/m2
04:32 21 °C 3.2 °C 1021.2 hPa South 3.2 km/h 14.5 km/h 31% 0 mm 0.0 W/m2
04:35 20.9 °C 3.1 °C 1021.2 hPa SSE 13 km/h 27.4 km/h 31% 0 mm 0.0 W/m2
04:37 20.9 °C 3.1 °C 1021.2 hPa SW 7.9 km/h 20.9 km/h 31% 0 mm 0.0 W/m2
04:42 20.9 °C 3.6 °C 1021.2 hPa South 13 km/h 17.7 km/h 32% 0 mm 0.0 W/m2
04:43 20.8 °C 3.5 °C 1021.2 hPa SSE 13 km/h 17.7 km/h 32% 0 mm 0.0 W/m2
04:45 20.8 °C 3.5 °C 1021.2 hPa SSW 3.2 km/h 22.5 km/h 32% 0 mm 0.0 W/m2
04:46 20.8 °C 3.5 °C 1021.2 hPa South 7.9 km/h 22.5 km/h 32% 0 mm 0.0 W/m2
04:55 20.7 °C 3.4 °C 1021.6 hPa SSW 13 km/h 13 km/h 32% 0 mm 0.0 W/m2
04:56 20.6 °C 3.3 °C 1021.6 hPa South 4.7 km/h 19.3 km/h 32% 0 mm 0.0 W/m2
04:58 20.6 °C 3.8 °C 1005.6 hPa SE 1.4 km/h 19.3 km/h 33% 0 mm 0.0 W/m2
04:59 20.6 °C 3.8 °C 1005.6 hPa SSE 13 km/h 25.7 km/h 33% 0 mm 0.0 W/m2
05:00 20.6 °C 3.3 °C 1005.3 hPa South 17.7 km/h 17.7 km/h 32% 0 mm 0.0 W/m2
05:01 20.5 °C 3.7 °C 1021.6 hPa South 4.7 km/h 22.5 km/h 33% 0 mm 0.0 W/m2
05:02 20.5 °C 3.7 °C 1021.6 hPa SSE 11.1 km/h 22.5 km/h 33% 0 mm 0.0 W/m2
05:03 20.5 °C 3.7 °C 1021.6 hPa SSE 11.1 km/h 22.5 km/h 33% 0 mm 0.0 W/m2
05:08 20.4 °C 3.6 °C 1021.6 hPa SSE 7.9 km/h 19.3 km/h 33% 0 mm 0.0 W/m2
05:10 20.4 °C 3.6 °C 1021.6 hPa South 1.4 km/h 22.5 km/h 33% 0 mm 0.0 W/m2
05:11 20.4 °C 3.6 °C 1021.6 hPa SW 9.7 km/h 12.9 km/h 33% 0 mm 0.0 W/m2
05:15 20.3 °C 3.5 °C 1021.6 hPa ESE 13 km/h 27.4 km/h 33% 0 mm 0.0 W/m2
05:16 20.3 °C 3.5 °C 1021.6 hPa SSE 6.4 km/h 27.4 km/h 33% 0 mm 0.0 W/m2
05:23 20.2 °C 3.8 °C 1021.6 hPa SSE 19.5 km/h 29 km/h 34% 0 mm 0.0 W/m2
05:26 20.2 °C 3.8 °C 1021.6 hPa South 4.7 km/h 14.5 km/h 34% 0 mm 0.0 W/m2
05:28 20.2 °C 3.8 °C 1021.6 hPa SE 9.7 km/h 29 km/h 34% 0 mm 0.0 W/m2
05:31 20.1 °C 3.7 °C 1021.6 hPa South 9.7 km/h 24.1 km/h 34% 0 mm 0.0 W/m2
05:32 20.1 °C 3.7 °C 1021.6 hPa SSE 7.9 km/h 12.9 km/h 34% 0 mm 0.0 W/m2
05:33 20.1 °C 3.7 °C 1021.6 hPa SE 11.1 km/h 29 km/h 34% 0 mm 0.0 W/m2
05:34 20.1 °C 3.7 °C 1021.6 hPa SSE 9.7 km/h 29 km/h 34% 0 mm 0.0 W/m2
05:35 20.1 °C 3.7 °C 1021.6 hPa SSE 14.3 km/h 22.5 km/h 34% 0 mm 0.0 W/m2
05:36 20.1 °C 3.7 °C 1021.6 hPa East 7.9 km/h 27.4 km/h 34% 0 mm 0.0 W/m2
05:39 20.1 °C 3.7 °C 1021.6 hPa SE 6.4 km/h 20.9 km/h 34% 0 mm 0.0 W/m2
05:40 20.1 °C 3.7 °C 1021.9 hPa SSE 11.1 km/h 17.7 km/h 34% 0 mm 0.0 W/m2
05:46 20 °C 3.7 °C 1021.6 hPa SE 7.9 km/h 29 km/h 34% 0 mm 0.0 W/m2
05:50 19.9 °C 3.6 °C 1021.6 hPa SSE 20.9 km/h 33.8 km/h 34% 0 mm 0.0 W/m2
05:51 19.9 °C 3.6 °C 1021.6 hPa SSE 7.9 km/h 24.1 km/h 34% 0 mm 0.0 W/m2
05:52 19.9 °C 3.6 °C 1021.6 hPa SE 14.3 km/h 14.5 km/h 34% 0 mm 0.0 W/m2
05:53 19.9 °C 3.6 °C 1021.9 hPa SE 27.4 km/h 27.4 km/h 34% 0 mm 0.0 W/m2
05:55 19.9 °C 3.6 °C 1021.6 hPa South 4.7 km/h 20.9 km/h 34% 0 mm 0.0 W/m2
05:56 19.9 °C 3.6 °C 1021.6 hPa SSE 16.3 km/h 22.5 km/h 34% 0 mm 0.0 W/m2
05:58 19.9 °C 3.6 °C 1021.6 hPa SSE 16.3 km/h 22.5 km/h 34% 0 mm 0.0 W/m2
05:59 19.8 °C 3.5 °C 1021.6 hPa SSW 6.4 km/h 17.7 km/h 34% 0 mm 0.0 W/m2
06:01 19.8 °C 3.5 °C 1021.6 hPa SW 9.7 km/h 24.1 km/h 34% 0 mm 0.0 W/m2
06:02 19.8 °C 3.5 °C 1021.6 hPa South 6.4 km/h 24.1 km/h 34% 0 mm 0.0 W/m2
06:09 19.7 °C 3.4 °C 1005.6 hPa SSE 9.7 km/h 19.3 km/h 34% 0 mm 0.0 W/m2
06:10 19.7 °C 3.4 °C 1021.9 hPa SE 13 km/h 25.7 km/h 34% 0 mm 0.0 W/m2
06:12 19.8 °C 3.5 °C 1021.9 hPa SE 4.7 km/h 19.3 km/h 34% 0 mm 0.0 W/m2
06:13 19.7 °C 3.4 °C 1021.9 hPa ESE 14.3 km/h 14.5 km/h 34% 0 mm 0.0 W/m2
06:14 19.7 °C 3.4 °C 1021.9 hPa SSE 1.4 km/h 19.3 km/h 34% 0 mm 0.0 W/m2
06:19 19.7 °C 3.8 °C 1021.9 hPa South 16.3 km/h 20.9 km/h 35% 0 mm 5.0 W/m2
06:20 19.6 °C 3.7 °C 1021.9 hPa SSW 3.2 km/h 17.7 km/h 35% 0 mm 5.0 W/m2
06:22 19.6 °C 3.3 °C 1021.9 hPa South 20.9 km/h 27.4 km/h 34% 0 mm 5.0 W/m2
06:24 19.6 °C 3.7 °C 1022.2 hPa South 7.9 km/h 20.9 km/h 35% 0 mm 7.0 W/m2
06:29 19.6 °C 3.7 °C 1021.9 hPa SSE 6.4 km/h 19.3 km/h 35% 0 mm 9.0 W/m2
06:32 19.5 °C 3.6 °C 1021.9 hPa SSE 13 km/h 24.1 km/h 35% 0 mm 9.0 W/m2
06:35 19.5 °C 3.6 °C 1022.2 hPa West 6.4 km/h 16.1 km/h 35% 0 mm 11.0 W/m2
06:36 19.4 °C 3.5 °C 1021.9 hPa SSW 13 km/h 22.5 km/h 35% 0 mm 11.0 W/m2
06:37 19.4 °C 3.5 °C 1021.9 hPa Calm   22.5 km/h 35% 0 mm 11.0 W/m2
06:38 19.4 °C 3.5 °C 1022.2 hPa WSW 3.2 km/h 16.1 km/h 35% 0 mm 11.0 W/m2
06:40 19.4 °C 3.5 °C 1021.9 hPa SSE 7.9 km/h 12.9 km/h 35% 0 mm 12.0 W/m2
06:41 19.4 °C 3.5 °C 1021.9 hPa South 4.7 km/h 11.3 km/h 35% 0 mm 12.0 W/m2
06:43 19.4 °C 3.5 °C 1006 hPa SSW 6.4 km/h 17.7 km/h 35% 0 mm 12.0 W/m2
06:44 19.4 °C 3.5 °C 1022.2 hPa SE 11.1 km/h 14.5 km/h 35% 0 mm 14.0 W/m2
06:45 19.4 °C 3.5 °C 1021.9 hPa SSW 4.7 km/h 14.5 km/h 35% 0 mm 14.0 W/m2
06:47 19.4 °C 3.5 °C 1022.2 hPa South 6.4 km/h 20.9 km/h 35% 0 mm 14.0 W/m2
06:49 19.4 °C 3.5 °C 1022.2 hPa ESE 16.3 km/h 16.3 km/h 35% 0 mm 14.0 W/m2
06:50 19.4 °C 3.5 °C 1022.2 hPa ESE 6.4 km/h 16.1 km/h 35% 0 mm 14.0 W/m2
06:53 19.4 °C 3.5 °C 1022.2 hPa East 7.9 km/h 19.3 km/h 35% 0 mm 16.0 W/m2
06:55 19.3 °C 3.9 °C 1022.2 hPa SW 9.7 km/h 25.7 km/h 36% 0 mm 16.0 W/m2
06:58 19.3 °C 3.9 °C 1022.2 hPa South 14.3 km/h 16.1 km/h 36% 0 mm 18.0 W/m2
06:59 19.3 °C 3.5 °C 1022.2 hPa SE 6.4 km/h 19.3 km/h 35% 0 mm 18.0 W/m2
07:03 19.4 °C 3.9 °C 1022.2 hPa SSW 3.2 km/h 20.9 km/h 36% 0 mm 19.0 W/m2
07:06 19.4 °C 3.9 °C 1022.2 hPa SE 1.4 km/h 14.5 km/h 36% 0 mm 19.0 W/m2
07:12 19.4 °C 3.5 °C 1022.2 hPa South 6.4 km/h 12.9 km/h 35% 0 mm 21.0 W/m2
07:17 19.6 °C 3.7 °C 1022.2 hPa SE 1.4 km/h 12.9 km/h 35% 0 mm 21.0 W/m2
07:22 19.7 °C 3.8 °C 1022.2 hPa SSE 7.9 km/h 16.1 km/h 35% 0 mm 23.0 W/m2
07:23 19.6 °C 3.7 °C 1022.2 hPa South 6.4 km/h 19.3 km/h 35% 0 mm 23.0 W/m2
07:24 19.8 °C 3.9 °C 1022.2 hPa WSW 1.4 km/h 16.1 km/h 35% 0 mm 23.0 W/m2
07:27 19.9 °C 4 °C 1022.2 hPa SE 11.1 km/h 20.9 km/h 35% 0 mm 25.0 W/m2
07:28 19.9 °C 4 °C 1022.2 hPa SE 13 km/h 16.1 km/h 35% 0 mm 25.0 W/m2
07:29 20.1 °C 3.7 °C 1022.2 hPa South 3.2 km/h 22.5 km/h 34% 0 mm 25.0 W/m2
07:34 20.2 °C 3.8 °C 1006.3 hPa SSE 19.5 km/h 22.5 km/h 34% 0 mm 25.0 W/m2
07:38 20.3 °C 3.9 °C 1022.2 hPa SE 3.2 km/h 17.7 km/h 34% 0 mm 26.0 W/m2
07:45 20.6 °C 4.2 °C 1022.2 hPa SE 3.2 km/h 12.9 km/h 34% 0 mm 74.0 W/m2
07:48 20.6 °C 4.2 °C 1022.6 hPa SE 9.7 km/h 14.5 km/h 34% 0 mm 98.0 W/m2
07:49 20.5 °C 4.1 °C 1022.2 hPa SE 4.7 km/h 11.3 km/h 34% 0 mm 35.0 W/m2
07:54 20.7 °C 4.3 °C 1022.6 hPa South 6.4 km/h 16.1 km/h 34% 0 mm 151.0 W/m2
07:57 21 °C 3.7 °C 1022.6 hPa South 7.9 km/h 17.7 km/h 32% 0 mm 341.0 W/m2
07:59 21.1 °C 3.8 °C 1022.6 hPa SSE 9.7 km/h 19.3 km/h 32% 0 mm 371.0 W/m2
08:00 21.2 °C 3.8 °C 1022.6 hPa SE 7.9 km/h 12.9 km/h 32% 0 mm 374.0 W/m2
08:02 21.3 °C 3.9 °C 1022.6 hPa WSW 6.4 km/h 22.5 km/h 32% 0 mm 381.0 W/m2
08:03 21.4 °C 4 °C 1022.6 hPa ESE 11.1 km/h 16.1 km/h 32% 0 mm 388.0 W/m2
08:04 21.4 °C 4 °C 1022.6 hPa SSE 4.7 km/h 16.1 km/h 32% 0 mm 390.0 W/m2
08:06 21.6 °C 4.2 °C 1022.6 hPa ESE 4.7 km/h 14.5 km/h 32% 0 mm 397.0 W/m2
08:08 21.7 °C 3.8 °C 1022.6 hPa SSE 13 km/h 22.5 km/h 31% 0 mm 410.0 W/m2
08:11 21.8 °C 3.9 °C 1022.6 hPa SSE 19.5 km/h 19.5 km/h 31% 0 mm 418.0 W/m2
08:13 21.9 °C 4 °C 1022.6 hPa SSE 13 km/h 22.5 km/h 31% 0 mm 429.0 W/m2
08:19 22.2 °C 3.8 °C 1022.6 hPa SE 9.7 km/h 29 km/h 30% 0 mm 454.0 W/m2
08:20 22.2 °C 3.8 °C 1022.6 hPa SE 16.3 km/h 29 km/h 30% 0 mm 455.0 W/m2
08:22 22.2 °C 3.8 °C 1022.6 hPa South 14.3 km/h 19.3 km/h 30% 0 mm 459.0 W/m2
08:23 22.2 °C 3.8 °C 1022.6 hPa SE 3.2 km/h 19.3 km/h 30% 0 mm 464.0 W/m2
08:24 22.3 °C 3.9 °C 1022.6 hPa SSW 4.7 km/h 16.1 km/h 30% 0 mm 468.0 W/m2
08:25 22.3 °C 3.9 °C 1022.6 hPa ESE 3.2 km/h 9.7 km/h 30% 0 mm 468.0 W/m2
08:26 22.3 °C 3.9 °C 1022.9 hPa South 14.3 km/h 16.1 km/h 30% 0 mm 475.0 W/m2
08:28 22.4 °C 4 °C 1022.6 hPa SE 3.2 km/h 22.5 km/h 30% 0 mm 483.0 W/m2
08:30 22.5 °C 4.1 °C 1022.9 hPa ESE 13 km/h 20.9 km/h 30% 0 mm 494.0 W/m2
08:32 22.6 °C 3.7 °C 1022.9 hPa ESE 13 km/h 20.9 km/h 29% 0 mm 501.0 W/m2
08:34 22.6 °C 3.7 °C 1022.9 hPa SE 11.1 km/h 17.7 km/h 29% 0 mm 508.0 W/m2
08:35 22.7 °C 3.7 °C 1022.9 hPa ESE 13 km/h 17.7 km/h 29% 0 mm 512.0 W/m2
08:37 22.7 °C 3.7 °C 1007 hPa SE 17.7 km/h 27.4 km/h 29% 0 mm 522.0 W/m2
08:40 22.8 °C 3.8 °C 1022.9 hPa SE 9.7 km/h 29 km/h 29% 0 mm 533.0 W/m2
08:42 22.8 °C 3.8 °C 1022.9 hPa SE 16.3 km/h 17.7 km/h 29% 0 mm 538.0 W/m2
08:43 22.8 °C 3.8 °C 1023.2 hPa SE 9.7 km/h 25.7 km/h 29% 0 mm 541.0 W/m2
08:44 22.8 °C 3.8 °C 1022.9 hPa SSW 11.1 km/h 25.7 km/h 29% 0 mm 545.0 W/m2
08:45 22.8 °C 3.8 °C 1007 hPa East 4.7 km/h 17.7 km/h 29% 0 mm 552.0 W/m2
08:46 22.9 °C 3.9 °C 1022.9 hPa South 11.1 km/h 30.6 km/h 29% 0 mm 554.0 W/m2
08:50 23.1 °C 3.6 °C 1007 hPa ESE 9.7 km/h 22.5 km/h 28% 0 mm 568.0 W/m2
08:52 23.2 °C 3.7 °C 1022.9 hPa SE 22.7 km/h 22.7 km/h 28% 0 mm 578.0 W/m2
08:56 23.3 °C 3.8 °C 1022.9 hPa ESE 13 km/h 16.1 km/h 28% 0 mm 594.0 W/m2
08:57 23.3 °C 3.2 °C 1022.9 hPa SSE 9.7 km/h 17.7 km/h 27% 0 mm 596.0 W/m2
08:59 23.4 °C 3.9 °C 1022.9 hPa SSE 14.3 km/h 14.5 km/h 28% 0 mm 603.0 W/m2
09:02 23.6 °C 4 °C 1022.9 hPa SE 14.3 km/h 14.5 km/h 28% 0 mm 615.0 W/m2
09:04 23.7 °C 3.6 °C 1022.9 hPa SSE 14.3 km/h 17.7 km/h 27% 0 mm 621.0 W/m2
09:06 23.9 °C 3.8 °C 1022.9 hPa ESE 9.7 km/h 19.3 km/h 27% 0 mm 629.0 W/m2
09:11 24.1 °C 3.4 °C 1022.9 hPa SE 16.3 km/h 19.3 km/h 26% 0 mm 647.0 W/m2
09:15 24.1 °C 3.4 °C 1022.9 hPa South 9.7 km/h 19.3 km/h 26% 0 mm 642.0 W/m2
09:17 24.4 °C 3.7 °C 1022.9 hPa SSE 6.4 km/h 19.3 km/h 26% 0 mm 664.0 W/m2
09:20 24.6 °C 3.8 °C 1022.9 hPa ESE 4.7 km/h 14.5 km/h 26% 0 mm 675.0 W/m2
09:21 24.3 °C 3.6 °C 1022.9 hPa ESE 6.4 km/h 12.9 km/h 26% 0 mm 661.0 W/m2
09:23 24.7 °C 3.3 °C 1022.9 hPa South 17.7 km/h 19.3 km/h 25% 0 mm 689.0 W/m2
09:25 24.8 °C 3.4 °C 1022.9 hPa ESE 17.7 km/h 20.9 km/h 25% 0 mm 693.0 W/m2
09:26 24.8 °C 3.4 °C 1022.9 hPa SSE 6.4 km/h 20.9 km/h 25% 0 mm 696.0 W/m2
09:28 24.8 °C 3.4 °C 1022.9 hPa SE 9.7 km/h 11.3 km/h 25% 0 mm 705.0 W/m2
09:30 24.8 °C 3.4 °C 1007 hPa SE 13 km/h 24.1 km/h 25% 0 mm 708.0 W/m2
09:32 24.9 °C 3.5 °C 1022.9 hPa South 4.7 km/h 17.7 km/h 25% 0 mm 717.0 W/m2
09:35 25.1 °C 3.7 °C 1022.9 hPa South 7.9 km/h 16.1 km/h 25% 0 mm 726.0 W/m2
09:39 25.3 °C 3.9 °C 1022.9 hPa SE 9.7 km/h 16.1 km/h 25% 0 mm 740.0 W/m2
09:40 25.3 °C 3.9 °C 1022.9 hPa SE 7.9 km/h 16.1 km/h 25% 0 mm 744.0 W/m2
09:41 25.1 °C 3.7 °C 1022.9 hPa SE 6.4 km/h 16.1 km/h 25% 0 mm 731.0 W/m2
09:43 25.4 °C 3.9 °C 1022.9 hPa Calm   12.9 km/h 25% 0 mm 752.0 W/m2
09:46 25.6 °C 4.1 °C 1022.9 hPa SSE 4.7 km/h 12.9 km/h 25% 0 mm 761.0 W/m2
09:50 25.9 °C 3.8 °C 1022.9 hPa South 6.4 km/h 17.7 km/h 24% 0 mm 777.0 W/m2
09:52 26 °C 3.9 °C 1022.9 hPa SE 6.4 km/h 16.1 km/h 24% 0 mm 780.0 W/m2
09:55 26.1 °C 4 °C 1022.9 hPa SE 4.7 km/h 17.7 km/h 24% 0 mm 795.0 W/m2
09:56 26.2 °C 4 °C 1022.9 hPa ESE 11.1 km/h 17.7 km/h 24% 0 mm 793.0 W/m2
09:58 26.2 °C 4 °C 1022.9 hPa South 6.4 km/h 16.1 km/h 24% 0 mm 800.0 W/m2
10:02 26.3 °C 3.5 °C 1023.2 hPa South 9.7 km/h 22.5 km/h 23% 0 mm 812.0 W/m2
10:04 26.4 °C 3.6 °C 1022.9 hPa ESE 6.4 km/h 12.9 km/h 23% 0 mm 821.0 W/m2
10:05 26.4 °C 3.6 °C 1022.9 hPa SE 6.4 km/h 12.9 km/h 23% 0 mm 823.0 W/m2
10:06 26.4 °C 4.2 °C 1023.2 hPa SE 19.5 km/h 19.5 km/h 24% 0 mm 826.0 W/m2
10:10 26.5 °C 3.7 °C 1022.9 hPa ESE 7.9 km/h 24.1 km/h 23% 0 mm 835.0 W/m2
10:11 26.6 °C 3.8 °C 1022.9 hPa SSE 3.2 km/h 17.7 km/h 23% 0 mm 837.0 W/m2
10:12 26.6 °C 3.8 °C 1022.9 hPa SE 11.1 km/h 12.9 km/h 23% 0 mm 837.0 W/m2
10:15 26.7 °C 3.8 °C 1022.9 hPa SSE 6.4 km/h 12.9 km/h 23% 0 mm 847.0 W/m2
10:19 27 °C 4.1 °C 1007 hPa South 7.9 km/h 12.9 km/h 23% 0 mm 860.0 W/m2
10:23 27.2 °C 3.6 °C 1022.9 hPa South 11.1 km/h 16.1 km/h 22% 0 mm 868.0 W/m2
10:24 27.3 °C 3.7 °C 1022.9 hPa SE 7.9 km/h 19.3 km/h 22% 0 mm 874.0 W/m2
10:26 27.4 °C 3.8 °C 1022.9 hPa SE 6.4 km/h 12.9 km/h 22% 0 mm 879.0 W/m2
10:27 27.4 °C 3.8 °C 1022.9 hPa ESE 9.7 km/h 11.3 km/h 22% 0 mm 881.0 W/m2
10:31 27.6 °C 4 °C 1022.9 hPa SE 17.7 km/h 22.5 km/h 22% 0 mm 893.0 W/m2
10:34 27.5 °C 3.9 °C 1022.9 hPa SSE 4.7 km/h 19.3 km/h 22% 0 mm 900.0 W/m2
10:35 27.6 °C 4 °C 1022.6 hPa ESE 9.7 km/h 19.3 km/h 22% 0 mm 900.0 W/m2
10:40 27.8 °C 3.5 °C 1007 hPa East 1.4 km/h 12.9 km/h 21% 0 mm 912.0 W/m2
10:42 27.9 °C 3.6 °C 1022.9 hPa NNE 4.7 km/h 9.7 km/h 21% 0 mm 918.0 W/m2
10:45 28.1 °C 3 °C 1022.9 hPa SE 6.4 km/h 14.5 km/h 20% 0 mm 928.0 W/m2
10:50 28.3 °C 3.9 °C 1022.9 hPa South 14.3 km/h 17.7 km/h 21% 0 mm 942.0 W/m2
10:51 28.4 °C 3.3 °C 1022.9 hPa SE 14.3 km/h 17.7 km/h 20% 0 mm 940.0 W/m2
10:52 28.3 °C 3.9 °C 1022.9 hPa SE 4.7 km/h 17.7 km/h 21% 0 mm 942.0 W/m2
10:53 28.3 °C 3.2 °C 1022.6 hPa SSE 3.2 km/h 12.9 km/h 20% 0 mm 946.0 W/m2
10:56 28.3 °C 3.9 °C 1022.6 hPa ESE 4.7 km/h 19.3 km/h 21% 0 mm 949.0 W/m2
10:57 28.4 °C 4 °C 1022.6 hPa ESE 11.1 km/h 19.3 km/h 21% 0 mm 954.0 W/m2
10:58 28.4 °C 3.3 °C 1022.6 hPa ESE 16.3 km/h 19.3 km/h 20% 0 mm 954.0 W/m2
10:59 28.4 °C 4 °C 1022.6 hPa South 7.9 km/h 19.3 km/h 21% 0 mm 956.0 W/m2
11:02 28.6 °C 3.4 °C 1022.6 hPa East 11.1 km/h 17.7 km/h 20% 0 mm 960.0 W/m2
11:05 28.7 °C 3.5 °C 1006.7 hPa ENE 3.2 km/h 19.3 km/h 20% 0 mm 969.0 W/m2
11:12 29.1 °C 4.5 °C 1022.6 hPa Calm   19.3 km/h 21% 0 mm 983.0 W/m2
11:13 29.2 °C 3.9 °C 1022.6 hPa SE 9.7 km/h 12.9 km/h 20% 0 mm 986.0 W/m2
11:15 29.3 °C 4 °C 1022.6 hPa East 3.2 km/h 20.9 km/h 20% 0 mm 991.0 W/m2
11:17 29.3 °C 3.3 °C 1022.6 hPa SSE 14.3 km/h 17.7 km/h 19% 0 mm 990.0 W/m2
11:20 29.3 °C 4 °C 1022.6 hPa East 14.3 km/h 16.1 km/h 20% 0 mm 998.0 W/m2
11:26 29.5 °C 3.4 °C 1022.6 hPa NNE 6.4 km/h 11.3 km/h 19% 0 mm 1011.0 W/m2
11:27 29.6 °C 3.5 °C 1022.2 hPa ESE 9.7 km/h 14.5 km/h 19% 0 mm 1009.0 W/m2
11:30 29.6 °C 3.5 °C 1022.6 hPa East 4.7 km/h 14.5 km/h 19% 0 mm 1018.0 W/m2
11:31 29.7 °C 4.3 °C 1022.2 hPa NE 7.9 km/h 14.5 km/h 20% 0 mm 1018.0 W/m2
11:32 29.7 °C 3.6 °C 1022.6 hPa NE 7.9 km/h 16.1 km/h 19% 0 mm 1016.0 W/m2
11:36 29.8 °C 3.7 °C 1022.6 hPa East 7.9 km/h 14.5 km/h 19% 0 mm 1025.0 W/m2
11:37 29.8 °C 3.7 °C 1022.6 hPa ENE 6.4 km/h 14.5 km/h 19% 0 mm 1023.0 W/m2
11:38 29.9 °C 3.8 °C 1022.6 hPa Calm   14.5 km/h 19% 0 mm 1025.0 W/m2
11:41 30.1 °C 3.9 °C 1022.6 hPa East 4.7 km/h 14.5 km/h 19% 0 mm 1028.0 W/m2
11:43 30.2 °C 4 °C 1022.2 hPa NE 6.4 km/h 12.9 km/h 19% 0 mm 1032.0 W/m2
11:45 30.2 °C 3.3 °C 1022.2 hPa NE 7.9 km/h 16.1 km/h 18% 0 mm 1035.0 W/m2
11:46 30.3 °C 3.3 °C 1022.6 hPa North 7.9 km/h 11.3 km/h 18% 0 mm 1035.0 W/m2
11:49 30.3 °C 2.5 °C 1022.2 hPa NE 1.4 km/h 11.3 km/h 17% 0 mm 1037.0 W/m2
11:59 30.8 °C 3.7 °C 1006.3 hPa ESE 1.4 km/h 14.5 km/h 18% 0 mm 1049.0 W/m2
12:00 30.8 °C 3.7 °C 1022.2 hPa NNE 3.2 km/h 11.3 km/h 18% 0 mm 1048.0 W/m2
12:03 30.9 °C 3.8 °C 1022.2 hPa Calm   9.7 km/h 18% 0 mm 1053.0 W/m2
12:05 31.1 °C 3.2 °C 1022.2 hPa SSE 6.4 km/h 22.5 km/h 17% 0 mm 1056.0 W/m2
12:14 31.2 °C 4.1 °C 1022.2 hPa SSE 7.9 km/h 9.7 km/h 18% 0 mm 1056.0 W/m2
12:16 31.2 °C 3.3 °C 1022.2 hPa SSE 3.2 km/h 14.5 km/h 17% 0 mm 1063.0 W/m2
12:17 31.2 °C 3.3 °C 1021.9 hPa East 6.4 km/h 9.7 km/h 17% 0 mm 1063.0 W/m2
12:18 31.2 °C 3.3 °C 1022.2 hPa NNW 4.7 km/h 12.9 km/h 17% 0 mm 1063.0 W/m2
12:19 31.3 °C 3.3 °C 1021.9 hPa NNW 3.2 km/h 12.9 km/h 17% 0 mm 1065.0 W/m2
12:21 31.4 °C 2.6 °C 1021.9 hPa East 3.2 km/h 9.7 km/h 16% 0 mm 1065.0 W/m2
12:26 31.6 °C 2.7 °C 1021.9 hPa ENE 6.4 km/h 8 km/h 16% 0 mm 1069.0 W/m2
12:30 31.6 °C 3.6 °C 1021.9 hPa SE 9.7 km/h 14.5 km/h 17% 0 mm 1069.0 W/m2
12:34 31.6 °C 3.6 °C 1021.9 hPa Calm   3.2 km/h 17% 0 mm 1074.0 W/m2
12:35 31.6 °C 3.6 °C 1021.9 hPa Calm   3.2 km/h 17% 0 mm 1074.0 W/m2
12:36 31.6 °C 3.6 °C 1021.9 hPa SSW 4.7 km/h 4.8 km/h 17% 0 mm 1074.0 W/m2
12:39 31.5 °C 3.5 °C 1021.6 hPa NW 4.7 km/h 4.8 km/h 17% 0 mm 1074.0 W/m2
12:40 31.5 °C 3.5 °C 1021.9 hPa NW 3.2 km/h 6.4 km/h 17% 0 mm 1072.0 W/m2
12:44 31.6 °C 3.6 °C 1021.6 hPa NNE 4.7 km/h 6.4 km/h 17% 0 mm 1074.0 W/m2
12:47 31.6 °C 4.4 °C 1021.6 hPa East 1.4 km/h 4.8 km/h 18% 0 mm 1076.0 W/m2
12:48 31.6 °C 3.6 °C 1021.6 hPa Calm   6.4 km/h 17% 0 mm 1076.0 W/m2
12:49 31.6 °C 3.6 °C 1021.6 hPa NNE 7.9 km/h 11.3 km/h 17% 0 mm 1071.0 W/m2
12:50 31.6 °C 2.7 °C 1021.6 hPa North 3.2 km/h 11.3 km/h 16% 0 mm 1078.0 W/m2
12:51 31.7 °C 2.8 °C 1021.6 hPa ESE 6.4 km/h 12.9 km/h 16% 0 mm 1076.0 W/m2
12:52 31.8 °C 3.7 °C 1021.6 hPa NNE 1.4 km/h 11.3 km/h 17% 0 mm 1072.0 W/m2
12:55 31.7 °C 3.7 °C 1021.6 hPa NNE 7.9 km/h 11.3 km/h 17% 0 mm 1072.0 W/m2
12:58 32.2 °C 3.2 °C 1021.6 hPa SE 1.4 km/h 12.9 km/h 16% 0 mm 1065.0 W/m2
12:59 32.2 °C 3.2 °C 1021.6 hPa SSE 6.4 km/h 6.4 km/h 16% 0 mm 1067.0 W/m2
13:00 32.1 °C 4 °C 1005.6 hPa SE 4.7 km/h 11.3 km/h 17% 0 mm 1067.0 W/m2
13:01 32.3 °C 3.3 °C 1021.6 hPa SSE 3.2 km/h 6.4 km/h 16% 0 mm 1071.0 W/m2
13:02 32.3 °C 3.3 °C 1021.6 hPa SSW 7.9 km/h 9.7 km/h 16% 0 mm 1067.0 W/m2
13:06 32.2 °C 3.2 °C 1021.6 hPa SSW 4.7 km/h 8 km/h 16% 0 mm 1072.0 W/m2
13:10 32.1 °C 3.1 °C 1021.2 hPa West 13 km/h 13 km/h 16% 0 mm 1069.0 W/m2
13:11 32.1 °C 3.1 °C 1021.2 hPa West 3.2 km/h 12.9 km/h 16% 0 mm 1071.0 W/m2
13:13 32.1 °C 3.1 °C 1021.2 hPa WNW 3.2 km/h 9.7 km/h 16% 0 mm 1065.0 W/m2
13:14 32.1 °C 3.1 °C 1021.2 hPa Calm   4.8 km/h 16% 0 mm 1062.0 W/m2
13:17 32.1 °C 3.1 °C 1021.2 hPa NW 1.4 km/h 6.4 km/h 16% 0 mm 1056.0 W/m2
13:19 32.1 °C 4 °C 1021.2 hPa ESE 13 km/h 16.1 km/h 17% 0 mm 1053.0 W/m2
13:23 32.3 °C 3.3 °C 1021.2 hPa SE 7.9 km/h 16.1 km/h 16% 0 mm 1053.0 W/m2
13:24 32.3 °C 3.3 °C 1021.2 hPa East 1.4 km/h 11.3 km/h 16% 0 mm 1058.0 W/m2
13:25 32.4 °C 3.4 °C 1005.3 hPa NNE 4.7 km/h 11.3 km/h 16% 0 mm 1060.0 W/m2
13:26 32.4 °C 2.4 °C 1020.9 hPa NE 7.9 km/h 12.9 km/h 15% 0 mm 1055.0 W/m2
13:28 32.4 °C 2.4 °C 1021.2 hPa East 4.7 km/h 11.3 km/h 15% 0 mm 1055.0 W/m2
13:33 32.6 °C 2.6 °C 1020.9 hPa SW 1.4 km/h 6.4 km/h 15% 0 mm 1056.0 W/m2
13:35 32.6 °C 3.5 °C 1020.9 hPa ESE 6.4 km/h 11.3 km/h 16% 0 mm 1062.0 W/m2
13:39 32.8 °C 2.8 °C 1020.9 hPa SSW 3.2 km/h 8 km/h 15% 0 mm 1058.0 W/m2
13:40 32.8 °C 2.8 °C 1020.9 hPa ENE 1.4 km/h 6.4 km/h 15% 0 mm 1055.0 W/m2
13:41 32.8 °C 2.8 °C 1020.9 hPa SSE 3.2 km/h 8 km/h 15% 0 mm 1051.0 W/m2
13:42 32.9 °C 2.8 °C 1020.9 hPa ESE 3.2 km/h 8 km/h 15% 0 mm 1049.0 W/m2
13:43 32.9 °C 2.8 °C 1020.9 hPa ESE 1.4 km/h 4.8 km/h 15% 0 mm 1049.0 W/m2
13:44 33 °C 2.9 °C 1020.9 hPa SE 1.4 km/h 4.8 km/h 15% 0 mm 1046.0 W/m2
13:46 33.1 °C 2 °C 1020.9 hPa ESE 1.4 km/h 1.6 km/h 14% 0 mm 1042.0 W/m2
13:48 33.2 °C 2.1 °C 1005 hPa Calm   1.6 km/h 14% 0 mm 1046.0 W/m2
13:55 33.6 °C 2.4 °C 1020.5 hPa NNW 3.2 km/h 8 km/h 14% 0 mm 1079.0 W/m2
13:56 33.7 °C 2.5 °C 1004.6 hPa Calm   6.4 km/h 14% 0 mm 1078.0 W/m2
13:59 33.9 °C 2.7 °C 1020.5 hPa East 4.7 km/h 4.8 km/h 14% 0 mm 1092.0 W/m2
14:02 33.9 °C 2.7 °C 1020.5 hPa Calm   8 km/h 14% 0 mm 1107.0 W/m2
14:06 33.7 °C 2.5 °C 1020.5 hPa NW 6.4 km/h 8 km/h 14% 0 mm 1056.0 W/m2
14:09 33.8 °C 2.6 °C 1020.5 hPa West 1.4 km/h 9.7 km/h 14% 0 mm 1042.0 W/m2
14:10 33.8 °C 2.6 °C 1020.5 hPa NW 16.3 km/h 16.3 km/h 14% 0 mm 963.0 W/m2
14:15 33.7 °C 1.5 °C 1020.5 hPa Calm   8 km/h 13% 0 mm 1037.0 W/m2
14:17 33.7 °C 2.5 °C 1020.2 hPa NE 4.7 km/h 8 km/h 14% 0 mm 1037.0 W/m2
14:18 33.7 °C 2.5 °C 1020.2 hPa NE 6.4 km/h 17.7 km/h 14% 0 mm 1042.0 W/m2
14:24 33.9 °C 2.7 °C 1020.2 hPa Calm   9.7 km/h 14% 0 mm 1037.0 W/m2
14:27 33.8 °C 2.6 °C 1020.2 hPa ESE 4.7 km/h 8 km/h 14% 0 mm 1037.0 W/m2
14:30 34.3 °C 0.8 °C 1020.2 hPa Calm   3.2 km/h 12% 0 mm 1014.0 W/m2
14:31 34.3 °C 1.9 °C 1019.9 hPa East 1.4 km/h 3.2 km/h 13% 0 mm 1011.0 W/m2
14:32 34.2 °C 1.9 °C 1020.2 hPa ENE 1.4 km/h 8 km/h 13% 0 mm 1028.0 W/m2
14:34 34.4 °C 2 °C 1019.9 hPa NNE 4.7 km/h 8 km/h 13% 0 mm 1005.0 W/m2
14:38 34.4 °C 2 °C 1019.9 hPa NE 3.2 km/h 6.4 km/h 13% 0 mm 1002.0 W/m2
14:40 34.6 °C 2.2 °C 1019.9 hPa Calm   8 km/h 13% 0 mm 1005.0 W/m2
14:42 34.7 °C 2.2 °C 1019.9 hPa SE 3.2 km/h 6.4 km/h 13% 0 mm 995.0 W/m2
14:43 34.7 °C 3.3 °C 1019.9 hPa SE 1.4 km/h 6.4 km/h 14% 0 mm 995.0 W/m2
14:45 34.9 °C 2.4 °C 1003.9 hPa SE 7.9 km/h 9.7 km/h 13% 0 mm 993.0 W/m2
14:46 35 °C 2.5 °C 1019.9 hPa NNE 3.2 km/h 9.7 km/h 13% 0 mm 986.0 W/m2
14:47 35.1 °C 1.4 °C 1003.9 hPa ESE 1.4 km/h 8 km/h 12% 0 mm 983.0 W/m2
14:48 35.2 °C 2.6 °C 1019.9 hPa NNE 4.7 km/h 6.4 km/h 13% 0 mm 976.0 W/m2
14:52 35.4 °C 2.8 °C 1019.9 hPa NNE 6.4 km/h 6.4 km/h 13% 0 mm 976.0 W/m2
14:53 35.4 °C 1.7 °C 1019.9 hPa NNE 6.4 km/h 9.7 km/h 12% 0 mm 986.0 W/m2
14:55 35.4 °C 1.7 °C 1019.9 hPa ENE 1.4 km/h 8 km/h 12% 0 mm 969.0 W/m2
15:02 35.3 °C 2.7 °C 1019.9 hPa Calm   3.2 km/h 13% 0 mm 954.0 W/m2
15:05 35.4 °C 1.7 °C 1019.9 hPa NNW 6.4 km/h 8 km/h 12% 0 mm 949.0 W/m2
15:08 35.3 °C 0.4 °C 1019.5 hPa Calm   12.9 km/h 11% 0 mm 942.0 W/m2
15:10 35.3 °C 0.4 °C 1019.5 hPa Calm   3.2 km/h 11% 0 mm 937.0 W/m2
15:12 35.3 °C 0.4 °C 1019.5 hPa NNW 3.2 km/h 9.7 km/h 11% 0 mm 932.0 W/m2
15:13 35.3 °C 0.4 °C 1003.6 hPa North 3.2 km/h 9.7 km/h 11% 0 mm 933.0 W/m2
15:14 35.2 °C 0.3 °C 1019.5 hPa Calm   6.4 km/h 11% 0 mm 926.0 W/m2
15:16 35.2 °C 0.3 °C 1019.5 hPa ENE 6.4 km/h 11.3 km/h 11% 0 mm 921.0 W/m2
15:19 35.2 °C 1.5 °C 1019.2 hPa South 9.7 km/h 9.7 km/h 12% 0 mm 918.0 W/m2
15:25 34.6 °C 1 °C 1019.5 hPa WSW 11.1 km/h 14.5 km/h 12% 0 mm 904.0 W/m2
15:30 34.2 °C 0.7 °C 1019.2 hPa WSW 3.2 km/h 14.5 km/h 12% 0 mm 907.0 W/m2
15:32 34.2 °C 0.7 °C 1019.2 hPa South 1.4 km/h 12.9 km/h 12% 0 mm 907.0 W/m2
15:33 34.3 °C 1.9 °C 1019.2 hPa South 1.4 km/h 14.5 km/h 13% 0 mm 905.0 W/m2
15:36 34.1 °C 0.7 °C 1019.2 hPa Calm   4.8 km/h 12% 0 mm 912.0 W/m2
15:37 34.2 °C 0.7 °C 1019.2 hPa Calm   4.8 km/h 12% 0 mm 909.0 W/m2
15:38 34.2 °C 0.7 °C 1019.2 hPa WSW 3.2 km/h 12.9 km/h 12% 0 mm 914.0 W/m2
15:40 34.3 °C 0.8 °C 1019.2 hPa SW 6.4 km/h 8 km/h 12% 0 mm 886.0 W/m2
15:48 34.7 °C -0.1 °C 1018.8 hPa SW 6.4 km/h 16.1 km/h 11% 0 mm 872.0 W/m2
15:51 34.8 °C 0 °C 1018.8 hPa West 9.7 km/h 22.5 km/h 11% 0 mm 856.0 W/m2
15:52 34.7 °C -0.1 °C 1019.2 hPa WSW 11.1 km/h 16.1 km/h 11% 0 mm 851.0 W/m2
15:54 34.7 °C -0.1 °C 1003.3 hPa WSW 6.4 km/h 14.5 km/h 11% 0 mm 849.0 W/m2
15:55 34.6 °C -0.2 °C 1019.2 hPa WNW 6.4 km/h 12.9 km/h 11% 0 mm 849.0 W/m2
15:59 34.3 °C -0.4 °C 1002.9 hPa SW 6.4 km/h 9.7 km/h 11% 0 mm 837.0 W/m2
16:03 34.3 °C -0.4 °C 1018.8 hPa Calm   6.4 km/h 11% 0 mm 831.0 W/m2
16:08 34.7 °C -0.1 °C 1018.8 hPa South 3.2 km/h 4.8 km/h 11% 0 mm 823.0 W/m2
16:12 34.8 °C 0 °C 1018.8 hPa WSW 6.4 km/h 14.5 km/h 11% 0 mm 819.0 W/m2
16:15 34.7 °C 1.1 °C 1002.9 hPa SSW 9.7 km/h 11.3 km/h 12% 0 mm 812.0 W/m2
16:17 34.7 °C -0.1 °C 1018.8 hPa SSW 7.9 km/h 12.9 km/h 11% 0 mm 803.0 W/m2
16:18 34.6 °C -0.2 °C 1018.8 hPa South 4.7 km/h 12.9 km/h 11% 0 mm 807.0 W/m2
16:19 34.6 °C -0.2 °C 1018.5 hPa ENE 1.4 km/h 12.9 km/h 11% 0 mm 802.0 W/m2
16:20 34.6 °C 1 °C 1018.5 hPa South 1.4 km/h 8 km/h 12% 0 mm 802.0 W/m2
16:21 34.6 °C 1 °C 1018.8 hPa SSW 11.1 km/h 11.3 km/h 12% 0 mm 796.0 W/m2
16:26 34.8 °C 1.2 °C 1018.5 hPa WSW 4.7 km/h 8 km/h 12% 0 mm 777.0 W/m2
16:28 34.9 °C 1.3 °C 1018.5 hPa WSW 1.4 km/h 3.2 km/h 12% 0 mm 780.0 W/m2
16:29 34.9 °C 0.1 °C 1018.5 hPa West 4.7 km/h 4.8 km/h 11% 0 mm 780.0 W/m2
16:33 35.1 °C 0.2 °C 1018.5 hPa WNW 7.9 km/h 14.5 km/h 11% 0 mm 777.0 W/m2
16:34 35.1 °C 0.2 °C 1018.5 hPa West 9.7 km/h 14.5 km/h 11% 0 mm 777.0 W/m2
16:42 35 °C 0.1 °C 1018.5 hPa SE 9.7 km/h 11.3 km/h 11% 0 mm 765.0 W/m2
16:44 35.2 °C 0.3 °C 1018.5 hPa East 6.4 km/h 8 km/h 11% 0 mm 754.0 W/m2
16:45 34.9 °C 0.1 °C 1018.5 hPa SE 3.2 km/h 4.8 km/h 11% 0 mm 773.0 W/m2
16:47 35.2 °C 0.3 °C 1018.5 hPa SSE 3.2 km/h 12.9 km/h 11% 0 mm 745.0 W/m2
16:48 35.3 °C 0.4 °C 1018.5 hPa NNE 7.9 km/h 12.9 km/h 11% 0 mm 744.0 W/m2
16:52 35.4 °C 0.5 °C 1018.5 hPa Calm   8 km/h 11% 0 mm 747.0 W/m2
16:54 35.5 °C 0.5 °C 1018.5 hPa SSE 1.4 km/h 8 km/h 11% 0 mm 325.0 W/m2
16:55 35.5 °C -0.8 °C 1018.5 hPa Calm   6.4 km/h 10% 0 mm 325.0 W/m2
16:57 35.4 °C 0.5 °C 1018.5 hPa Calm   8 km/h 11% 0 mm 190.0 W/m2
16:58 35.3 °C 0.4 °C 1018.2 hPa SSE 4.7 km/h 6.4 km/h 11% 0 mm 197.0 W/m2
17:00 35.2 °C 0.3 °C 1018.5 hPa South 3.2 km/h 9.7 km/h 11% 0 mm 691.0 W/m2
17:01 35.2 °C 0.3 °C 1018.2 hPa ESE 6.4 km/h 9.7 km/h 11% 0 mm 677.0 W/m2
17:02 35.2 °C 0.3 °C 1018.2 hPa East 9.7 km/h 9.7 km/h 11% 0 mm 668.0 W/m2
17:03 35.2 °C 1.5 °C 1018.5 hPa NE 9.7 km/h 11.3 km/h 12% 0 mm 621.0 W/m2
17:04 35.2 °C 0.3 °C 1018.5 hPa NNE 1.4 km/h 11.3 km/h 11% 0 mm 652.0 W/m2
17:08 35.3 °C 1.6 °C 1002.6 hPa NNW 3.2 km/h 3.2 km/h 12% 0 mm 645.0 W/m2
17:09 35.3 °C 0.4 °C 1018.5 hPa ESE 1.4 km/h 8 km/h 11% 0 mm 163.0 W/m2
17:10 35.3 °C 0.4 °C 1002.3 hPa NE 4.7 km/h 8 km/h 11% 0 mm 160.0 W/m2
17:14 35.1 °C 0.2 °C 1018.2 hPa ENE 4.7 km/h 12.9 km/h 11% 0 mm 178.0 W/m2
17:16 34.9 °C 0.1 °C 1018.2 hPa ENE 4.7 km/h 9.7 km/h 11% 0 mm 592.0 W/m2
17:17 34.9 °C 0.1 °C 1018.2 hPa NE 7.9 km/h 16.1 km/h 11% 0 mm 587.0 W/m2
17:20 34.8 °C 1.2 °C 1018.2 hPa ESE 7.9 km/h 27.4 km/h 12% 0 mm 534.0 W/m2
17:22 34.7 °C 1.1 °C 1018.2 hPa SSE 6.4 km/h 17.7 km/h 12% 0 mm 555.0 W/m2
17:25 34.7 °C -0.1 °C 1018.2 hPa ESE 9.7 km/h 11.3 km/h 11% 0 mm 515.0 W/m2
17:26 34.7 °C -0.1 °C 1018.2 hPa East 7.9 km/h 14.5 km/h 11% 0 mm 144.0 W/m2
17:35 34.2 °C 0.7 °C 1018.2 hPa SSE 1.4 km/h 6.4 km/h 12% 0 mm 105.0 W/m2
17:36 34.2 °C 0.7 °C 1018.2 hPa Calm   6.4 km/h 12% 0 mm 315.0 W/m2
17:39 34.1 °C 0.7 °C 1018.2 hPa SE 1.4 km/h 6.4 km/h 12% 0 mm 323.0 W/m2
17:41 34 °C 0.6 °C 1018.2 hPa SSE 1.4 km/h 4.8 km/h 12% 0 mm 91.0 W/m2
17:46 33.8 °C 0.4 °C 1018.2 hPa Calm   1.6 km/h 12% 0 mm 274.0 W/m2
17:47 33.8 °C 0.4 °C 1018.2 hPa SSW 3.2 km/h 4.8 km/h 12% 0 mm 325.0 W/m2
17:49 33.7 °C 0.4 °C 1018.2 hPa Calm   6.4 km/h 12% 0 mm 392.0 W/m2
17:52 33.8 °C 0.4 °C 1018.2 hPa Calm   3.2 km/h 12% 0 mm 343.0 W/m2
17:53 33.8 °C 0.4 °C 1018.2 hPa SW 1.4 km/h 6.4 km/h 12% 0 mm 84.0 W/m2
17:58 33.6 °C 0.3 °C 1018.2 hPa Calm   3.2 km/h 12% 0 mm 58.0 W/m2
18:01 33.4 °C 0.1 °C 1018.2 hPa SE 4.7 km/h 4.8 km/h 12% 0 mm 54.0 W/m2
18:03 33.3 °C 0 °C 1018.2 hPa SE 1.4 km/h 6.4 km/h 12% 0 mm 51.0 W/m2
18:04 33.3 °C 0 °C 1018.2 hPa SE 3.2 km/h 8 km/h 12% 0 mm 49.0 W/m2
18:06 33.2 °C 0 °C 1018.2 hPa SE 1.4 km/h 6.4 km/h 12% 0 mm 47.0 W/m2
18:08 33.1 °C -0.1 °C 1018.2 hPa Calm   1.6 km/h 12% 0 mm 46.0 W/m2
18:10 33 °C -0.2 °C 1018.2 hPa Calm   1.6 km/h 12% 0 mm 44.0 W/m2
18:11 32.9 °C -0.3 °C 1018.2 hPa Calm   1.6 km/h 12% 0 mm 40.0 W/m2
18:12 32.9 °C -0.3 °C 1018.2 hPa Calm   3.2 km/h 12% 0 mm 40.0 W/m2
18:14 32.9 °C -0.3 °C 1018.2 hPa SE 3.2 km/h 4.8 km/h 12% 0 mm 40.0 W/m2
18:16 32.8 °C -0.3 °C 1002.3 hPa SE 1.4 km/h 4.8 km/h 12% 0 mm 40.0 W/m2
18:17 32.8 °C -0.3 °C 1018.2 hPa SE 4.7 km/h 4.8 km/h 12% 0 mm 40.0 W/m2
18:20 32.7 °C -0.4 °C 1018.2 hPa Calm   4.8 km/h 12% 0 mm 40.0 W/m2
18:21 32.7 °C -0.4 °C 1018.2 hPa Calm   1.6 km/h 12% 0 mm 39.0 W/m2
18:22 32.6 °C -0.5 °C 1018.2 hPa Calm   1.6 km/h 12% 0 mm 40.0 W/m2
18:32 32.3 °C 0.4 °C 1018.2 hPa Calm     13% 0 mm 40.0 W/m2
18:35 32.2 °C 0.3 °C 1018.2 hPa Calm     13% 0 mm 44.0 W/m2
18:37 32.2 °C 0.3 °C 1018.5 hPa Calm     13% 0 mm 46.0 W/m2
18:38 32.1 °C 0.2 °C 1002.3 hPa Calm     13% 0 mm 49.0 W/m2
18:40 32.1 °C -0.9 °C 1018.2 hPa Calm     12% 0 mm 44.0 W/m2
18:41 32 °C 0.1 °C 1018.2 hPa Calm     13% 0 mm 53.0 W/m2
18:45 31.9 °C 0.1 °C 1018.2 hPa SE 1.4 km/h 3.2 km/h 13% 0 mm 39.0 W/m2
18:46 31.9 °C 0.1 °C 1018.2 hPa Calm   3.2 km/h 13% 0 mm 37.0 W/m2
18:47 31.8 °C 0 °C 1018.2 hPa Calm   3.2 km/h 13% 0 mm 35.0 W/m2
18:48 31.8 °C 0 °C 1018.2 hPa Calm   3.2 km/h 13% 0 mm 33.0 W/m2
18:50 31.8 °C 1 °C 1018.5 hPa East 1.4 km/h 4.8 km/h 14% 0 mm 32.0 W/m2
18:51 31.8 °C 0 °C 1018.5 hPa ESE 1.4 km/h 4.8 km/h 13% 0 mm 30.0 W/m2
18:53 31.7 °C -0.1 °C 1018.5 hPa Calm   6.4 km/h 13% 0 mm 30.0 W/m2
18:55 31.7 °C -0.1 °C 1018.5 hPa Calm   1.6 km/h 13% 0 mm 28.0 W/m2
18:57 31.8 °C 0 °C 1018.5 hPa SE 1.4 km/h 6.4 km/h 13% 0 mm 30.0 W/m2
18:58 31.6 °C 0.9 °C 1018.5 hPa Calm   1.6 km/h 14% 0 mm 28.0 W/m2
19:01 31.6 °C -0.2 °C 1018.5 hPa Calm     13% 0 mm 32.0 W/m2
19:02 31.6 °C -0.2 °C 1018.5 hPa Calm   1.6 km/h 13% 0 mm 30.0 W/m2
19:04 31.6 °C -0.2 °C 1018.5 hPa SE 1.4 km/h 6.4 km/h 13% 0 mm 25.0 W/m2
19:05 31.5 °C -0.3 °C 1002.6 hPa Calm   6.4 km/h 13% 0 mm 25.0 W/m2
19:07 31.4 °C -0.3 °C 1002.6 hPa Calm   1.6 km/h 13% 0 mm 25.0 W/m2
19:08 31.4 °C -0.3 °C 1018.5 hPa Calm   1.6 km/h 13% 0 mm 25.0 W/m2
19:10 31.4 °C 0.7 °C 1018.5 hPa SE 1.4 km/h 1.6 km/h 14% 0 mm 26.0 W/m2
19:12 31.3 °C -0.4 °C 1018.5 hPa Calm   1.6 km/h 13% 0 mm 26.0 W/m2
19:15 31.3 °C -0.4 °C 1018.5 hPa Calm   1.6 km/h 13% 0 mm 21.0 W/m2
19:16 31.2 °C -0.5 °C 1018.5 hPa Calm   1.6 km/h 13% 0 mm 21.0 W/m2
19:21 31.2 °C 0.5 °C 1018.5 hPa SE 1.4 km/h 3.2 km/h 14% 0 mm 21.0 W/m2
19:27 30.9 °C 0.3 °C 1018.5 hPa SE 4.7 km/h 4.8 km/h 14% 0 mm 14.0 W/m2
19:28 31.1 °C 0.5 °C 1018.5 hPa SE 1.4 km/h 4.8 km/h 14% 0 mm 19.0 W/m2
19:33 30.8 °C 0.2 °C 1018.5 hPa Calm   1.6 km/h 14% 0 mm 7.0 W/m2
19:43 30.4 °C 0.9 °C 1018.5 hPa Calm   3.2 km/h 15% 0 mm 0.0 W/m2
19:48 30.2 °C -0.3 °C 1018.5 hPa Calm   3.2 km/h 14% 0 mm 0.0 W/m2
19:53 30.1 °C -0.3 °C 1002.6 hPa SE 1.4 km/h 9.7 km/h 14% 0 mm 0.0 W/m2
19:58 30 °C -0.4 °C 1018.5 hPa SE 3.2 km/h 8 km/h 14% 0 mm 0.0 W/m2
20:03 29.8 °C 0.4 °C 1018.5 hPa SE 3.2 km/h 8 km/h 15% 0 mm 0.0 W/m2
20:10 29.5 °C 0.1 °C 1002.9 hPa SE 1.4 km/h 9.7 km/h 15% 0 mm 0.0 W/m2
20:13 29.4 °C 0.1 °C 1018.8 hPa Calm   3.2 km/h 15% 0 mm 0.0 W/m2
20:23 29.2 °C -0.1 °C 1018.8 hPa Calm   3.2 km/h 15% 0 mm 0.0 W/m2
20:28 29.2 °C -0.1 °C 1003.3 hPa ESE 3.2 km/h 3.2 km/h 15% 0 mm 0.0 W/m2
20:30 29.2 °C -0.1 °C 1019.2 hPa Calm   3.2 km/h 15% 0 mm 0.0 W/m2
20:36 29.1 °C 0.7 °C 1019.2 hPa Calm     16% 0 mm 0.0 W/m2
20:38 29 °C -0.3 °C 1019.2 hPa Calm     15% 0 mm 0.0 W/m2
Olympia, Windhoek, Namibia
Compliments of Weather Underground - 4.5 mb